Location: Unspecified
(44.4377°N, 88.0525°W)
Time: 23:29:46
(UTC-05:00)

Resurs 1-4 Rocket - Visible Passes

Search period start: 19 September 2018 00:00
Search period end: 29 September 2018 00:00
Orbit: 799 x 815 km, 98.5° (Epoch: 19 September)

Date Brightness Start Highest point End Pass type
(mag) Time Alt. Az. Time Alt. Az. Time Alt. Az.
19 Sep 4.1 02:25:27 10° NNE 02:27:44 25° NE 02:27:44 25° NE visible
19 Sep 3.6 04:05:52 10° N 04:08:48 23° NW 04:08:48 23° NW visible
20 Sep 4.5 02:01:14 10° NE 02:02:45 17° NE 02:02:45 17° NE visible
20 Sep 3.5 03:40:51 10° N 03:43:49 29° NNW 03:43:49 29° NNW visible
21 Sep 4.9 01:37:26 10° NE 01:37:45 11° NE 01:37:45 11° NE visible
21 Sep 3.5 03:16:03 10° N 03:18:50 31° N 03:18:50 31° N visible
22 Sep 3.8 02:51:24 10° NNE 02:53:50 28° NNE 02:53:50 28° NNE visible
22 Sep 4.0 04:32:48 10° NNW 04:34:55 15° NW 04:34:55 15° NW visible
23 Sep 4.3 02:26:56 10° NNE 02:28:51 22° NNE 02:28:51 22° NNE visible
23 Sep 3.8 04:07:25 10° N 04:09:56 21° NW 04:09:56 21° NW visible
24 Sep 4.7 02:02:42 10° NE 02:03:52 16° NE 02:03:52 16° NE visible
24 Sep 3.7 03:42:23 10° N 03:44:56 25° NNW 03:44:56 25° NNW visible
25 Sep 5.0 01:38:52 10° NE 01:38:52 10° NE 01:38:52 10° NE visible
25 Sep 3.8 03:17:33 10° N 03:19:57 27° N 03:19:57 27° N visible
26 Sep 4.1 02:52:54 10° NNE 02:54:58 24° NNE 02:54:58 24° NNE visible
26 Sep 4.1 04:34:23 10° NNW 04:36:02 14° NW 04:36:02 14° NW visible
27 Sep 4.5 02:28:26 10° NNE 02:29:58 19° NNE 02:29:58 19° NNE visible
27 Sep 3.9 04:08:58 10° N 04:11:02 19° NNW 04:11:02 19° NNW visible
28 Sep 4.8 02:04:10 10° NNE 02:04:58 14° NE 02:04:58 14° NE visible
28 Sep 3.9 03:43:55 10° N 03:46:03 22° NNW 03:46:03 22° NNW visible
